Temperature
13 13 13 12 12 12 12 12 12 12 12 12 12 12 12 12 12 12 12 12 11 11 11 11 11 10 10 10 10 10 10 10 10 11 11 11 11 11 11 11 11 11 11
12 12 12 12 12 12 12 12 12 12 12 12 12 12 12 12 11 11 11 11 11 11 11 10 10 10 10 10 10 10 10 9 10 10 10 10 10 10 10 10 11 11 11
12 12 12 12 11 11 11 11 11 11 11 11 11 11 11 11 11 11 11 11 11 10 10 10 10 9 9 9 9 9 9 9 9 9 9 9 9 10 10 10 10 10 10
11 11 11 11 11 11 11 11 11 11 11 11 11 11 11 11 11 10 10 10 10 10 10 9 9 9 9 8 8 8 8 8 8 8 9 9 9 9 9 9 9 10 10
11 11 11 11 11 10 10 10 10 10 10 10 10 10 10 10 10 10 10 9 9 9 9 9 9 8 8 8 8 8 7 8 8 8 8 8 8 8 8 9 9 9 9
10 10 10 10 10 10 10 10 10 10 10 10 10 10 10 10 10 10 9 9 9 9 8 8 8 8 8 7 7 7 7 7 7 7 7 7 8 8 8 8 8 9 9
10 10 10 10 10 9 9 9 9 9 9 9 9 9 9 9 9 9 9 8 8 8 8 7 7 7 7 7 7 7 7 7 7 6 6 7 7 7 7 7 8 8 8
9 9 9 9 9 9 9 9 9 8 8 8 7 7 7 8 8 8 8 8 7 7 7 7 7 6 6 6 6 6 6 6 6 6 6 6 6 6 6 7 7 7 7
9 9 9 9 9 8 8 8 8 8 7 7 6 6 5 5 5 6 6 7 6 6 6 6 6 6 6 6 5 5 5 6 5 5 5 5 6 6 6 6 6 6 7
9 9 8 8 8 8 8 8 7 7 7 6 6 6 5 4 4 4 5 6 6 6 6 5 5 5 5 5 5 5 5 5 5 5 5 5 5 5 5 5 6 6 6
8 8 8 8 8 7 7 7 7 7 6 6 6 5 5 5 4 4 4 5 5 5 5 5 5 5 5 4 4 4 4 4 4 4 4 4 4 4 5 5 5 5 5
8 8 7 7 7 7 7 7 6 6 6 6 5 5 5 4 4 3 3 4 4 5 5 5 4 4 4 4 4 4 4 4 4 4 4 4 4 4 4 4 4 4 4
8 7 7 7 7 6 6 6 6 6 6 5 5 5 4 4 4 3 3 3 3 3 4 4 4 4 4 3 3 3 3 3 3 3 3 3 3 3 3 3 3 4 4
7 7 6 6 6 6 6 6 6 6 5 5 5 4 4 4 3 3 2 2 2 2 3 3 4 3 3 3 3 3 3 3 3 3 3 3 3 3 3 3 3 3 3
6 6 6 6 6 6 6 5 5 5 5 5 4 4 4 3 3 3 2 2 1 1 1 2 2 3 2 2 2 2 2 2 2 2 3 2 3 2 2 3 3 3 3
6 6 6 6 6 5 5 5 5 5 5 4 4 3 3 3 3 2 2 2 1 0 0 1 1 2 2 2 2 2 2 2 2 2 2 2 2 2 2 2 2 3 3
6 5 5 5 5 5 5 5 5 4 4 4 3 3 3 2 2 2 1 1 1 0 -0 1 1 1 1 1 1 1 1 1 1 2 2 2 2 2 2 2 2 2 2
5 5 5 5 5 5 4 4 4 4 4 3 3 3 2 2 2 1 1 1 0 0 -0 -0 1 1 1 1 1 1 1 1 1 1 1 1 1 2 2 2 2 2 2
5 5 5 4 4 4 4 4 4 3 3 3 2 2 2 1 1 1 1 0 0 -0 -0 -1 -0 0 0 0 -0 0 0 0 0 0 1 1 1 1 1 1 2 2 2
4 4 4 4 4 4 4 3 3 3 2 2 2 1 1 1 0 0 0 -0 -0 -1 -1 -1 -1 -1 -1 -1 -1 -1 -0 -0 0 0 0 1 1 1 1 1 1 1 2
4 4 4 4 3 3 3 3 2 2 2 2 1 1 1 0 0 -0 -0 -1 -1 -1 -1 -1 -1 -1 -1 -1 -2 -2 -2 -1 -1 -0 -0 0 0 1 1 1 1 1 1
3 3 3 3 3 3 2 2 2 1 1 1 1 1 0 0 -0 -0 -1 -1 -1 -1 -2 -2 -2 -2 -2 -2 -2 -2 -2 -2 -2 -1 -1 -1 -0 0 0 0 1 1 1
3 3 3 3 2 2 2 1 1 1 1 1 0 0 -0 -0 -1 -1 -1 -1 -1 -1 -2 -2 -2 -2 -2 -2 -3 -3 -2 -2 -2 -2 -2 -1 -1 -1 -0 0 0 1 1
2 2 2 2 2 2 1 1 0 0 0 0 -0 -0 -1 -1 -1 -1 -1 -1 -1 -1 -1 -2 -2 -2 -2 -2 -3 -3 -2 -2 -2 -2 -2 -2 -1 -1 -0 -0 0 0 1
2 2 2 2 1 1 1 0 0 0 -0 -0 -0 -1 -1 -1 -1 -2 -2 -1 -1 -1 -1 -2 -2 -2 -2 -2 -2 -2 -2 -2 -2 -2 -2 -2 -2 -2 -1 -0 -0 -0 -0
2 2 1 1 1 1 0 -0 -0 -1 -1 -1 -1 -1 -1 -2 -2 -2 -2 -2 -2 -2 -2 -2 -2 -2 -2 -2 -2 -2 -2 -3 -3 -3 -2 -2 -2 -2 -2 -1 -1 -1 -0
Wind_Speed
2 2 3 3 4 4 4 4 4 5 5 5 5 5 4 5 5 6 7 9 10 11 12 12 13 13 13 14 14 14 14 14 14 15 15 15 15 16 17 17 17 18 18
3 2 2 2 3 3 4 3 3 3 3 3 4 5 5 5 5 6 7 9 10 11 12 13 13 14 14 15 14 14 15 15 15 16 15 15 16 16 17 18 18 18 19
3 3 2 1 2 3 4 4 4 3 3 4 4 5 4 4 5 5 7 7 8 10 12 13 14 15 15 16 16 16 16 16 16 17 17 17 17 17 17 18 19 19 20
3 3 2 1 2 3 3 2 2 3 4 4 4 4 4 4 4 5 5 6 7 8 10 12 14 15 16 17 17 18 18 17 17 18 18 18 19 19 19 19 19 19 20
3 3 2 1 1 2 2 2 2 2 3 5 5 4 4 4 4 4 4 5 6 7 8 11 14 15 17 17 18 19 19 18 18 19 20 20 20 20 20 20 20 20 20
3 3 2 1 1 1 2 2 2 3 2 4 5 5 5 5 4 3 4 5 6 7 8 9 10 12 15 17 18 20 20 21 20 20 21 21 21 21 21 22 21 21 21
2 2 1 1 1 1 1 2 2 3 3 3 3 5 5 4 4 3 3 4 5 6 7 8 9 10 11 16 18 20 21 22 22 21 21 21 21 22 22 22 22 22 22
2 2 2 0 0 0 1 2 2 2 3 3 2 3 4 5 3 4 4 4 5 5 6 10 10 10 11 11 15 20 22 22 22 22 22 22 22 22 23 23 23 22 22
2 2 2 1 0 1 1 2 1 1 2 3 1 0 1 3 6 4 4 4 5 5 6 7 9 11 12 12 13 17 21 21 22 23 23 23 23 23 23 23 22 22 22
3 3 2 2 1 1 1 2 2 2 2 3 2 1 3 3 3 5 5 4 6 7 7 8 8 10 12 12 14 18 21 22 23 24 24 24 25 25 24 24 23 23 23
2 2 2 2 2 2 2 2 2 2 2 3 3 3 3 3 4 5 9 8 7 6 6 7 7 8 11 12 13 16 21 22 23 24 25 25 25 25 25 24 24 24 23
2 2 2 2 2 2 3 3 3 3 3 3 3 3 3 3 4 4 8 11 11 9 8 6 6 7 9 11 14 19 22 23 24 25 25 25 25 25 25 25 25 25 24
2 3 2 2 2 3 3 3 3 3 3 4 4 4 4 5 5 6 8 10 11 10 7 6 5 7 9 10 13 20 21 23 25 25 25 25 25 25 26 26 26 26 26
4 3 3 3 3 3 4 3 3 3 3 4 5 5 5 5 5 5 6 8 11 10 8 8 6 6 8 10 15 21 18 23 24 25 25 25 25 25 26 26 25 25 25
3 3 3 3 3 3 3 3 3 4 4 4 5 5 5 5 5 5 5 6 7 12 12 10 7 6 8 10 16 16 15 21 24 25 25 24 24 25 26 26 25 25 24
3 2 2 3 3 3 3 3 3 4 4 5 4 5 6 5 5 5 5 6 6 9 12 9 9 10 11 13 18 16 16 23 23 23 24 23 24 24 25 25 24 24 24
3 3 3 3 3 3 3 3 4 4 5 5 5 6 7 7 6 5 5 6 7 7 12 13 10 10 11 11 13 12 14 13 15 21 22 23 23 24 24 24 23 23 22
3 3 3 3 3 4 4 4 5 5 5 6 6 6 8 7 7 6 6 7 7 8 10 15 12 10 10 10 11 11 12 13 13 19 21 22 23 23 22 22 21 20 20
2 2 2 3 4 4 4 4 4 5 6 6 6 7 8 7 8 7 7 8 7 8 8 11 13 10 9 9 10 11 11 10 13 15 18 20 21 21 20 20 19 18 17
1 2 2 3 4 4 4 5 4 5 5 6 7 7 7 7 8 9 8 8 7 8 8 9 11 10 9 9 8 10 11 9 11 12 14 16 18 19 19 18 16 15 14
1 2 2 3 3 3 4 4 4 4 5 6 6 7 7 9 11 10 9 8 8 8 8 9 10 10 10 9 9 9 12 12 10 8 8 10 11 10 11 13 13 12 11
2 2 2 3 4 4 7 7 6 4 5 6 7 7 8 9 11 14 14 14 12 10 9 9 9 10 11 10 9 10 11 11 10 5 7 10 8 9 8 7 10 11 10
2 2 3 3 4 5 8 8 8 5 4 5 6 7 8 8 11 8 11 14 13 14 14 11 11 11 12 11 11 12 11 11 11 9 9 9 8 8 8 9 10 9 8
2 2 3 3 4 6 9 9 9 5 4 5 6 7 8 9 9 10 9 9 9 9 11 9 9 10 11 10 10 11 12 11 10 7 5 7 7 7 8 8 9 8 7
2 3 3 3 4 6 8 9 9 4 4 6 6 6 8 8 12 14 10 9 10 9 11 13 14 14 16 17 13 8 8 8 9 7 4 4 5 6 6 6 6 8 8
2 3 4 4 4 5 7 8 9 3 5 5 6 6 9 10 13 14 9 8 10 10 9 9 10 11 11 11 12 8 6 7 7 6 3 3 5 5 4 4 4 5 6
Wind_Direction
91 70 53 42 31 26 23 17 15 10 7 358 354 353 343 334 330 330 328 328 327 325 322 319 316 312 308 306 303 302 300 296 292 290 287 283 281 276 272 270 268 264 262
112 92 63 45 27 19 19 22 15 9 358 357 347 345 335 330 330 328 327 325 324 324 325 322 320 318 315 310 306 302 299 296 295 293 289 288 285 283 277 272 271 268 264
120 111 88 46 20 18 24 24 13 10 355 350 337 332 336 333 327 326 326 326 325 324 325 324 323 320 318 314 310 306 302 297 294 292 290 288 286 284 282 279 273 271 267
123 113 101 51 20 34 38 16 357 353 347 341 330 321 324 326 323 322 324 326 326 326 327 327 326 325 322 317 314 310 305 300 296 293 290 289 287 284 282 281 279 274 271
123 121 114 81 40 47 29 355 355 346 336 334 324 318 316 313 309 316 321 324 324 324 326 328 327 325 323 320 317 314 310 305 301 297 292 288 287 285 283 281 278 276 275
130 120 108 77 63 42 5 355 337 337 322 319 322 322 312 303 305 304 305 320 323 323 325 323 324 320 320 318 317 315 310 307 302 299 297 292 288 285 284 281 278 277 276
150 133 122 90 69 48 330 337 337 339 334 335 343 332 321 308 307 297 307 308 314 320 326 324 320 317 316 315 313 313 311 306 302 299 297 295 293 290 287 283 281 279 276
169 150 148 172 115 28 358 347 342 336 330 354 357 340 335 331 330 309 303 297 305 320 322 318 313 311 310 309 308 311 311 308 304 301 298 296 294 291 287 284 283 281 278
188 179 173 173 209 192 263 289 295 296 307 322 340 227 328 300 313 298 293 296 304 307 306 307 307 308 306 306 303 307 311 309 305 302 300 298 295 292 289 287 285 283 282
197 195 192 187 213 238 254 272 284 272 264 296 309 257 236 248 287 308 304 295 297 295 292 302 302 302 301 301 301 306 309 310 306 302 300 299 297 293 290 289 286 283 281
218 210 204 197 228 251 257 267 278 273 262 265 273 277 282 277 255 272 296 304 302 283 285 288 289 294 299 301 300 303 309 310 309 305 300 299 297 296 294 292 289 285 282
253 239 227 222 232 247 255 259 262 260 265 267 270 265 262 268 274 272 285 299 302 299 293 283 285 289 297 302 302 307 307 306 305 304 303 302 299 297 295 293 290 287 283
253 246 246 244 252 253 256 258 264 264 262 264 266 268 263 261 264 271 282 293 297 300 298 288 277 285 298 303 303 304 304 304 304 302 301 300 298 296 295 293 291 288 284
237 238 236 240 250 255 266 263 264 264 270 268 274 274 275 271 266 266 272 289 300 301 299 291 292 281 295 301 301 305 303 303 303 301 299 297 296 294 293 290 288 286 283
241 232 236 246 256 259 264 268 268 272 275 270 271 274 279 279 274 272 270 271 282 297 300 297 299 295 304 304 303 306 301 302 303 300 298 296 295 294 292 288 284 283 282
236 244 258 261 270 272 273 276 279 280 282 282 279 281 283 283 281 275 272 271 266 274 287 292 293 299 304 305 307 307 302 304 305 304 302 298 296 295 293 289 284 281 279
235 245 254 263 271 280 282 281 280 285 285 289 290 288 288 286 284 284 280 277 274 271 281 292 292 298 299 301 307 306 305 304 305 306 305 302 299 296 294 289 285 282 278
239 248 257 264 272 279 281 279 282 287 285 289 292 292 290 293 290 288 284 280 279 274 277 292 299 302 301 304 305 307 311 310 306 308 309 309 305 300 296 290 286 283 281
259 270 260 264 272 279 281 280 274 279 281 284 287 287 288 290 291 291 287 283 282 285 280 286 295 300 302 306 308 307 307 307 309 311 312 312 310 308 305 299 292 287 282
269 281 277 275 278 283 283 282 279 282 287 289 289 287 286 286 286 289 290 286 287 288 287 288 295 301 304 305 307 311 314 316 314 313 312 312 311 314 311 307 303 297 288
318 302 304 306 304 294 287 294 288 290 293 300 302 299 293 294 294 297 298 296 295 292 293 295 298 303 306 313 314 313 311 313 311 308 313 316 316 316 317 312 307 304 302
339 333 326 324 321 313 309 314 318 304 302 302 306 307 305 302 304 305 304 304 300 297 298 296 297 299 302 306 309 310 310 311 311 315 320 317 319 321 321 317 314 312 309
335 330 328 327 317 313 322 324 324 323 309 306 308 310 313 313 314 307 307 310 306 301 296 292 292 293 297 303 304 305 305 304 300 305 313 312 319 320 325 325 324 323 327
319 315 318 318 319 320 330 331 333 331 310 306 305 303 305 307 309 312 309 308 304 301 298 295 288 290 293 295 292 291 294 298 298 298 301 304 314 320 328 330 332 336 341
324 319 317 316 316 317 332 336 337 323 315 311 310 309 310 306 312 321 319 313 311 308 310 308 305 304 305 307 307 304 304 306 306 309 308 295 307 317 327 338 347 357 2
317 321 321 316 308 305 322 333 338 325 319 316 315 313 316 320 324 327 322 317 316 317 317 318 317 317 315 316 317 311 302 303 303 306 312 316 311 322 326 334 352 353 360
Height
1520 1519 1519 1518 1518 1517 1516 1515 1515 1514 1513 1512 1511 1510 1509 1508 1507 1506 1504 1503 1502 1501 1500 1499 1497 1496 1495 1494 1493 1492 1491 1489 1489 1488 1487 1486 1485 1485 1484 1484 1484 1484 1483
1518 1518 1517 1517 1516 1515 1515 1514 1513 1512 1511 1510 1509 1508 1506 1505 1504 1503 1502 1500 1499 1498 1496 1495 1493 1492 1491 1490 1488 1487 1486 1485 1483 1482 1481 1481 1480 1479 1478 1478 1477 1477 1477
1517 1516 1516 1515 1515 1514 1513 1512 1511 1510 1509 1508 1506 1505 1504 1502 1501 1500 1498 1497 1496 1494 1493 1491 1489 1488 1486 1485 1483 1482 1481 1479 1478 1477 1476 1475 1474 1473 1472 1471 1471 1471 1470
1515 1515 1514 1514 1513 1512 1511 1510 1509 1508 1506 1505 1503 1502 1501 1499 1498 1497 1495 1494 1492 1491 1489 1487 1485 1483 1482 1480 1478 1476 1475 1473 1472 1471 1470 1469 1468 1467 1466 1465 1464 1464 1464
1514 1513 1513 1512 1511 1510 1509 1508 1507 1506 1504 1502 1500 1499 1497 1496 1495 1493 1492 1490 1489 1487 1485 1483 1481 1479 1477 1475 1473 1471 1469 1467 1466 1465 1463 1462 1461 1460 1459 1458 1458 1457 1457
1512 1511 1511 1510 1509 1508 1507 1506 1505 1503 1502 1499 1497 1495 1494 1492 1491 1490 1488 1487 1485 1483 1481 1479 1477 1474 1472 1470 1468 1465 1463 1461 1459 1458 1457 1455 1454 1453 1452 1451 1450 1450 1449
1510 1509 1509 1508 1507 1506 1505 1504 1503 1501 1499 1497 1494 1491 1489 1488 1487 1486 1484 1483 1481 1479 1477 1475 1472 1470 1467 1465 1462 1460 1457 1454 1452 1451 1450 1449 1448 1446 1445 1444 1443 1443 1442
1507 1507 1506 1506 1505 1504 1503 1502 1501 1498 1497 1495 1493 1489 1485 1484 1482 1482 1480 1478 1477 1475 1473 1471 1468 1465 1463 1460 1457 1454 1451 1447 1446 1445 1444 1442 1441 1439 1438 1437 1436 1435 1434
1505 1504 1504 1503 1503 1502 1501 1500 1498 1496 1494 1493 1492 1491 1487 1482 1478 1476 1475 1474 1472 1471 1468 1466 1463 1461 1458 1455 1452 1449 1445 1442 1440 1439 1437 1435 1434 1432 1431 1430 1428 1427 1426
1502 1502 1501 1501 1500 1499 1498 1497 1496 1494 1493 1491 1490 1489 1488 1484 1480 1473 1470 1470 1468 1466 1464 1461 1459 1456 1453 1450 1447 1444 1440 1437 1435 1432 1430 1428 1426 1424 1423 1422 1421 1419 1418
1499 1499 1498 1498 1497 1497 1496 1494 1493 1492 1490 1489 1487 1485 1483 1482 1479 1475 1467 1463 1461 1461 1459 1456 1454 1451 1448 1445 1442 1438 1435 1432 1428 1426 1423 1421 1418 1417 1415 1414 1412 1411 1410
1495 1495 1495 1495 1494 1493 1493 1491 1490 1489 1487 1486 1484 1482 1480 1478 1475 1473 1467 1460 1456 1454 1453 1451 1449 1446 1443 1440 1436 1433 1429 1426 1422 1419 1415 1413 1411 1409 1407 1405 1404 1403 1402
1491 1492 1492 1491 1491 1490 1489 1488 1487 1485 1484 1482 1480 1478 1476 1474 1472 1470 1465 1459 1453 1448 1446 1445 1443 1441 1438 1434 1431 1427 1423 1419 1415 1412 1409 1406 1403 1401 1398 1397 1395 1394 1393
1488 1488 1488 1488 1488 1487 1486 1485 1483 1482 1480 1478 1476 1474 1472 1470 1468 1466 1463 1458 1450 1443 1440 1438 1437 1435 1432 1429 1425 1421 1417 1413 1409 1405 1401 1398 1395 1392 1390 1388 1386 1385 1384
1486 1485 1485 1485 1484 1483 1482 1481 1479 1478 1476 1474 1472 1470 1467 1465 1463 1461 1459 1456 1452 1443 1434 1432 1431 1429 1426 1423 1419 1415 1410 1406 1402 1398 1394 1390 1387 1384 1381 1379 1377 1376 1375
1482 1482 1482 1481 1480 1479 1478 1477 1475 1473 1471 1469 1467 1465 1463 1460 1458 1456 1454 1451 1448 1444 1434 1427 1426 1423 1420 1417 1413 1409 1404 1400 1395 1391 1387 1382 1379 1376 1372 1370 1368 1367 1366
1479 1479 1478 1477 1476 1475 1474 1473 1471 1469 1467 1465 1463 1460 1458 1456 1453 1450 1448 1445 1442 1439 1432 1423 1421 1418 1414 1410 1406 1402 1398 1393 1388 1384 1379 1375 1371 1368 1364 1361 1359 1358 1356
1475 1475 1475 1474 1473 1471 1470 1468 1467 1465 1463 1460 1458 1455 1453 1450 1447 1445 1442 1439 1436 1433 1429 1420 1414 1412 1408 1405 1400 1396 1392 1387 1382 1378 1373 1368 1364 1360 1356 1353 1350 1349 1347
1472 1472 1471 1470 1469 1467 1466 1464 1462 1460 1458 1456 1453 1450 1448 1445 1442 1440 1437 1434 1431 1428 1424 1418 1411 1407 1403 1399 1395 1390 1386 1381 1377 1372 1367 1362 1358 1353 1349 1345 1342 1341 1340
1469 1468 1467 1466 1465 1464 1462 1460 1458 1456 1453 1451 1449 1446 1443 1441 1438 1435 1432 1429 1425 1422 1418 1413 1407 1402 1398 1395 1391 1385 1379 1376 1371 1367 1362 1358 1353 1348 1343 1339 1336 1334 1334
1466 1465 1464 1463 1461 1460 1458 1456 1454 1451 1449 1447 1444 1442 1439 1437 1434 1431 1428 1424 1421 1417 1413 1409 1404 1399 1394 1391 1387 1382 1377 1371 1366 1363 1357 1353 1348 1343 1338 1335 1332 1331 1330
1463 1462 1461 1459 1458 1456 1455 1453 1450 1448 1445 1443 1440 1437 1435 1432 1429 1426 1424 1420 1417 1414 1409 1405 1400 1396 1391 1388 1384 1379 1375 1369 1362 1360 1355 1349 1346 1340 1336 1332 1330 1328 1327
1460 1459 1458 1457 1455 1453 1451 1449 1447 1444 1442 1439 1436 1433 1430 1428 1425 1422 1418 1415 1412 1409 1406 1402 1397 1392 1388 1384 1380 1376 1372 1367 1362 1358 1354 1347 1343 1339 1335 1332 1329 1327 1326
1458 1457 1456 1454 1452 1450 1448 1446 1444 1441 1438 1436 1433 1430 1427 1424 1421 1417 1413 1410 1407 1404 1401 1397 1393 1389 1385 1381 1378 1374 1370 1365 1359 1356 1353 1347 1342 1338 1334 1331 1328 1327 1326
1456 1454 1453 1451 1449 1447 1446 1443 1441 1438 1435 1433 1430 1427 1424 1420 1417 1414 1410 1405 1401 1398 1396 1392 1389 1385 1381 1378 1375 1371 1366 1362 1356 1352 1350 1347 1342 1338 1333 1330 1329 1327 1326
1453 1452 1450 1448 1447 1444 1442 1440 1438 1435 1432 1429 1426 1424 1421 1417 1414 1411 1407 1402 1397 1393 1390 1387 1384 1380 1377 1374 1371 1368 1364 1360 1356 1351 1348 1346 1342 1339 1334 1331 1329 1328 1326